Home > Time Zones > World Clock > Weather > Qatar > Doha > Past weeks

Flag for Qatar Weather past 2 weeks in Doha, Qatar

Now
88 °F

Passing clouds.


Feels Like: 100 °F
Forecast: 83 / 102 °F
Wind: 3 mph from Southwest

Location: Doha International Airport

Current Time: Sep 16, 2014 at 4:00:54 AM

Latest Report: Sep 16, 2014 at 3:00 AM


Visibility: N/A

Pressure: 29.62 "Hg

Humidity: 70%

Dew point: 77 °F

Location of DohaLocation

Historic Weather in Doha — Graph

°F

Doha temperature yesterday

Maximum temperature yesterday: 106 °F (at 11:00 AM)
Minimum temperature yesterday: 88 °F (at 3:30 AM)
Average temperature yesterday: 95 °F

Past Weeks' High & Low Weather Summary

 TemperatureHumidityPressure
High113 °F (Sep 5, 12:00 PM)100% (Sep 3, 2:30 AM)29.74 "Hg (Sep 3, 2:30 AM)
Low70 °F (Sep 3, 2:30 AM)8% (Sep 12, 3:00 PM)29.47 "Hg (Sep 1, 4:00 PM)
Average97 °F48%29.61 "Hg
* Reported Sep 1 2:00 AM — Sep 16 2:30 AM, Doha, Weather by CustomWeather, © 2014

Note: Actual official high and low records may vary slightly from our data, if they occured in-between our weather recording intervals... More about our weather records

Advertising

Doha weather history for previous 24 hours

 ConditionsComfort  
Time TempWeatherWind HumidityBarometerVisibility
2:30 AM
Sep 16
88 °FPassing clouds.5 mph70%29.59 "HgN/A
2:00 AM88 °FPassing clouds.5 mph70%29.59 "HgN/A
1:30 AM88 °FPassing clouds.5 mph70%29.59 "HgN/A
1:00 AM88 °FPassing clouds.5 mph70%29.59 "HgN/A
12:30 AM88 °FClear.No wind79%29.62 "Hg10 mi
12:00 AM88 °FClear.3 mph75%29.62 "Hg10 mi
11:00 PM
Sep 15
90 °FClear.3 mph71%29.62 "Hg10 mi
10:30 PM90 °FClear.2 mph67%29.62 "Hg10 mi
10:00 PM90 °FClear.2 mph71%29.65 "Hg10 mi
9:30 PM91 °FClear.3 mph67%29.65 "Hg10 mi
9:00 PM91 °FClear.3 mph67%29.65 "Hg10 mi
8:30 PM91 °FClear.5 mph67%29.65 "Hg10 mi
8:00 PM91 °FClear.7 mph63%29.62 "Hg10 mi
7:00 PM93 °FClear.7 mph63%29.62 "Hg10 mi
6:30 PM93 °FClear.9 mph59%29.62 "Hg10 mi
6:00 PM95 °FClear.9 mph56%29.62 "Hg10 mi
5:00 PM97 °FSunny.12 mph44%29.62 "Hg10 mi
4:00 PM100 °FSunny.12 mph31%29.62 "Hg10 mi
3:30 PM102 °FSunny.13 mph31%29.62 "Hg10 mi
3:00 PM100 °FSunny.13 mph35%29.62 "Hg10 mi
2:30 PM102 °FSunny.14 mph31%29.62 "Hg10 mi
2:00 PM102 °FSunny.13 mph26%29.62 "Hg10 mi
1:30 PM102 °FSunny.13 mph29%29.62 "Hg10 mi
1:00 PM104 °FSunny.13 mph29%29.62 "Hg10 mi
12:00 PM106 °FPassing clouds.8 mph19%29.65 "HgN/A
11:00 AM106 °FPassing clouds.9 mph20%29.68 "HgN/A
10:00 AM104 °FSunny.9 mph19%29.68 "Hg10 mi
9:30 AM104 °FPassing clouds.6 mph21%29.68 "HgN/A
9:00 AM100 °FPassing clouds.5 mph25%29.68 "HgN/A
8:00 AM95 °FPassing clouds.5 mph50%29.68 "HgN/A
7:00 AM91 °FPassing clouds.6 mph59%29.68 "HgN/A
6:30 AM90 °FPassing clouds.3 mph63%29.68 "HgN/A
6:00 AM88 °FPassing clouds.5 mph62%29.65 "HgN/A
5:30 AM88 °FPassing clouds.3 mph62%29.65 "HgN/A
5:00 AM88 °FPassing clouds.3 mph66%29.65 "HgN/A
4:30 AM88 °FClear.3 mph66%29.65 "Hg10 mi
4:00 AM88 °FPassing clouds.6 mph70%29.65 "HgN/A
Weather by CustomWeather, © 2014

See weather overviewHow to use our weather pages